Rome Urbe AFB, Italy

5:35 AM CEST on August 21, 2017 (GMT +0200)
Urbe

Weather History for LIRU - September, 2012

Change the Weather History Date:

Tuesday, September 11, 2012

  Actual Average Record
Temperature  
Mean Temperature 73 °F -  
Max Temperature 84 °F 79 °F 91 °F (2008)
Min Temperature 62 °F 55 °F 48 °F (2001)
Cooling Degree Days 8    
Growing Degree Days 23 (Base 50)    
Moisture  
Dew Point 65 °F    
Average Humidity 69    
Maximum Humidity 100    
Minimum Humidity 48    
Precipitation  
Precipitation 0.00 in 0.11 in - ()
Sea Level Pressure  
Sea Level Pressure 30.03 in    
Wind  
Wind Speed 4 mph ()    
Max Wind Speed 13 mph    
Max Gust Speed -    
Visibility 5.2 miles    
Events      
Averages and records for this station are not official NWS values.
T = Trace of Precipitation, MM = Missing Value Source: Averaged Metar Reports

Daily Weather History Graph

Daily Weather History Graph

Search for Another Location

Airport or City:

Trip Planner

Search our weather history database for the weather conditions in past years. The results will help you decide how hot, cold, wet, or windy it might be!

Date:

Astronomy

Sep. 11, 2012 Rise Set
Actual Time 6:46 AM CEST 7:26 PM CEST
Civil Twilight 6:18 AM CEST 7:54 PM CEST
Nautical Twilight 5:44 AM CEST 8:27 PM CEST
Astronomical Twilight 5:10 AM CEST 9:01 PM CEST
Moon 1:43 AM CEST (9/11) 4:28 PM CEST (9/11)
Length of Visible Light 13h 36m
Length of Day
12h 39m
Waning Crescent, 24% of the Moon is Illuminated
Sep 11
Waning Crescent
Sep 16
New
Sep 22
First Quarter
Sep 30
Full
Oct 8
Last Quarter

Hourly Weather History & Observations

Time (CEST) Temp. Heat Index Dew Point Humidity Pressure Visibility Wind Dir Wind Speed Gust Speed Precip Events Conditions
7:14 AM 62.6 °F - 62.6 °F 100% 30.06 in 3.1 mi Variable 1.2 mph - N/A   Mist
7:32 AM 64.4 °F - 62.6 °F 94% 30.06 in 3.7 mi Variable 2.3 mph - N/A   Unknown
7:50 AM 64.4 °F - 64.4 °F 100% 30.06 in 3.7 mi Variable 1.2 mph - N/A   Unknown
8:50 AM 66.2 °F - 64.4 °F 94% 30.06 in 3.7 mi Variable 2.3 mph - N/A   Unknown
9:50 AM 71.6 °F - 64.4 °F 78% 30.09 in 5.0 mi Variable 2.3 mph - N/A   Unknown
10:50 AM 77.0 °F - 64.4 °F 65% 30.06 in 5.0 mi Variable 2.3 mph - N/A   Unknown
11:50 AM 80.6 °F 82.7 °F 66.2 °F 61% 30.09 in 5.0 mi Variable 2.3 mph - N/A   Unknown
12:50 PM 84.2 °F 86.6 °F 66.2 °F 55% 30.04 in - Variable 3.5 mph - N/A   Clear
1:50 PM 84.2 °F 85.6 °F 64.4 °F 51% 30.04 in 6.2 mi Variable 3.5 mph - N/A   Partly Cloudy
2:50 PM 82.4 °F 84.6 °F 66.2 °F 58% 30.01 in 6.2 mi West 10.4 mph - N/A   Partly Cloudy
3:34 PM 84.2 °F 86.6 °F 66.2 °F 55% 30.01 in 6.2 mi West 10.4 mph - N/A   Partly Cloudy
3:50 PM 82.4 °F 83.9 °F 64.4 °F 54% 30.01 in 6.2 mi WSW 11.5 mph - N/A   Partly Cloudy
4:24 PM 84.2 °F 85.6 °F 64.4 °F 51% 30.01 in 6.2 mi SW 8.1 mph - N/A   Partly Cloudy
4:50 PM 82.4 °F 83.4 °F 62.6 °F 51% 30.01 in 6.2 mi West 12.7 mph - N/A   Partly Cloudy
5:50 PM 82.4 °F 82.9 °F 60.8 °F 48% 29.98 in 6.2 mi WSW 9.2 mph - N/A   Partly Cloudy
6:50 PM 78.8 °F - 64.4 °F 61% 29.98 in - WSW 6.9 mph - N/A   Clear
7:50 PM 75.2 °F - 66.2 °F 73% 30.01 in - Variable 3.5 mph - N/A   Clear
8:50 PM 73.4 °F - 66.2 °F 78% 30.01 in - Variable 3.5 mph - N/A   Clear
9:50 PM 71.6 °F - 66.2 °F 83% 30.01 in - Variable 2.3 mph - N/A   Clear